KCLE

Cleveland International

Airport
ICAO code
KCLE
Summary
ICAO Region
NAM
ICAO Territory
Location

Cleveland, Ohio,

Coordinates
41° 24' 37" N , 81° 51' 10" W
KCC
Airport WX
Lake Effect Snow
Metar
Observation
KCLE 270303Z 23016G21KT 8SM -SN OVC015 M02/M06 A2995 RMK AO2 P0000 T10221061
Station
Cleveland, Cleveland-Hopkins International Airport
Date/Time
2023-01-27 03:03:00
Wind direction
230°
Wind speed
16 kts
Lowest cloud amount
overcast
Temperature
-2.2°C
Dew point
-6.1°C
Humidity
74%
Weather condition
light snow

Description

Cleveland Hopkins International Airport is a public airport located 14 km southwest of the central business district of Cleveland, a city in Cuyahoga County, Ohio, United States.

Climatology

Humid continental climate (Köppen climate classification Dfa) - characterized by four seasons: cold, windy, snowy winters, mild springs, hot, humid summers, and crisp and relatively short autumns. Precipitation reaches its lowest in January and February and peaks in summer and latter half of spring.

Airport map

Aerial View

SKYbrary Partners:

Safety knowledge contributed by: